FENGYUN 1C DEB, 30504

Orbit data source: Space-Track

FENGYUN 1C DEB, 30504 is space debris in SSO originally from a launch on Mon, 10 May 1999 UTC launched from the Taiyaun Space Center, China (TSC). Fengyun 1C debris stems from the Chinese weather satellite Fengyun-1C, which was intentionally destroyed by a Chinese anti-satellite missile in 2007. This event dramatically increased the amount of space debris, with thousands of trackable fragments posing hazards to satellites and human spaceflight. The Fengyun 1C debris cloud has become a focal point in discussions about space sustainability and the need for international regulations to prevent the creation of new debris.

Loading next visibility...
Identifier
30504, 1999-025AHS
Orbit
SSO
Country
Flag of CNCN / PRC
Related business
Manufacturer
Unknown
Mission
Spacecraft
Bus & Motor
Unknown
Mass
Unknown
Launch date (UTC)
1999-05-10 (27 years ago)
Launch vehicle
Unknown
Launch site
Taiyaun Space Center, China (TSC)
Object type
Payload
Rocket body
Debris
Shape & HBR
Unknown shape, 0.1 m
Radar Cross Section
Medium (>0.1 m² and <1 m²)

Expand to show TLE details & history
Last TLE update: 16 hours ago

TLE from 16 hours ago
0 FENGYUN 1C DEB
1 30504U 99025AHS 26236.40062022  .00000598  00000-0  27925-3 0  9992
2 30504  98.9964 292.5231 0110096 208.8386 150.6676 14.21036785 10093
Epoch: 2026-08-24T09:36Z
TLE epoch observation values (Epoch: 2026-08-24T09:36:53.587Z)
Latitude
-0.00007°
Longitude
175.61697°
Altitude
894.081 km
Speed
7.369 km/s
True Right ascension
19h 30m 05s
True Declination
0° 00' 00"
Sunlit
Object was in full shadow at epoch
Visualization orbit readout
Latitude
Unknown
Longitude
Unknown
Altitude
Unknown
Speed
Unknown
Apparent Right ascension
Unknown
Apparent Declination
Unknown
Sunlit
N/A
Visualization observer readout
Local Sidereal Time
16:38:03
Azimuth
Unknown
Elevation
Unknown
Doppler factor
Unknown
Orbital elements
Apogee altitude
898.257 km
Perigee altitude
739.781 km
Semi-major axis
7,197.156 km
Eccentricity
0.01101
Inclination
98.9964°
RAAN
292.5231°
Arg. of periapsis
208.8386°
True anomaly
151.27829°
Mean anomaly
150.6676°
Eccentric anomaly
150.97367°
Mean motion
3.55469 °/min
Orbital period
101.27 mins
BSTAR
0.00027925
Loading maneuver chart data...
Computing Atmospheric mass density...
Loading historical data...
Loading historical data...
Loading historical data...
Loading historical data...
Loading historical data...
Loading historical data...
Loading historical data...

Documentation

Showing up to 5 results
|